Location: Unnamed
(47.6264°N, 122.3366°W)
Time: 22:16:39
(UTC-07:00)

ELYUSIUM/LOWER FREE FLYE - Pass Details

Date: 11 August 2020
Orbit: 571 x 589 km, 97.7° (Epoch: 21 September)

Event Time Altitude Azimuth Distance (km) Brightness Sun altitude
Exits shadow 21:28:37 - 93° (E) 1,945 ? -9.8°
Reaches altitude 10° 21:28:54 10° 90° (E) 1,886 ? -9.9°
Maximum altitude 21:30:56 14° 60° (ENE) 1,667 ? -10.2°
Drops below altitude 10° 21:32:58 10° 30° (NNE) 1,897 ? -10.4°
Sets 21:36:04 0° 4° (N) 2,806 ? -10.9°
